Gonets-M No. 17L

operational
NORAD ID: 39251 Int'l Des: 2013-048 Owner: GONETS Country: RU
LEOCIRCULARPOLAR

About Gonets-M No. 17L

Description loading...

Live Position

Loading 3D Globe...

Upcoming Passes

Altitude History

Altitude vs Time

uPlot chart will show altitude changes over time

Two-Line Element Set

1 39251U 13048C 26061.18007132 .00000037 00000-0 19706-3 0 9999
2 39251 82.4852 52.9509 0018637 87.1754 273.1459 12.42910421565540
Epoch: Mar 2, 2026 • Age: 39 hours

Current Status

Altitude 1490.9 km
Velocity 7.12 km/s
Sub-Earth Point 15.46°N, 25.03°E
Launch Date Sep 11, 2013
Age 12.4 years
Type other

Technical Details

Classification Payload
Mass 280.00 kg
Dry Mass 280.00 kg
Total Mass 280.00 kg
Length 1.60 m
Diameter 0.80 m
Span 7.00 m
Shape Cyl + Ant
Manufacturer RESH
Bus Type Strela-3M
Phase Status In Orbit
Owner/State GONETS/RU

Large Constellations

Loading constellations...